Regional Weather Roundup
Issued by NWS

Home | Current Version | Previous Version | Graphics & Text | Print | Product List | Glossary On
Versions: 1 2 3 4 5 6 7 8 9 10 11 12 13 14 15 16 17 18 19 20 21 22 23 24 25 26 27 28 29 30 31 32 33 34 35 36 37 38 39 40 41 42 43 44 45 46 47 48 49
000
ASUS45 KBOU 211910
RWRCO

WEATHER ROUNDUP FOR COLORADO
NATIONAL WEATHER SERVICE DENVER/BOULDER CO
100 PM MDT SAT APR 21 2018

NOTE: "FAIR" INDICATES FEW OR NO CLOUDS BELOW 12000 FEET WITH NO
SIGNIFICANT WEATHER AND/OR OBSTRUCTIONS TO VISIBILITY.

COZ001>005-013-030-031-212000-
...NORTHWEST COLORADO...

CITY           SKY/WX    TMP DP  RH WIND       PRES   REMARKS
CRAIG          CLOUDY    45  35  68 CALM      30.20F
HAYDEN         CLOUDY    41  34  76 W5        30.21F
MEEKER         CLOUDY    43  34  70 NW5       30.21F
RANGELY        MOCLDY    51  37  57 CALM      30.18F
RABBIT EARS PA FOG      N/A N/A N/A W9        30.21R VSB<1/4
STEAMBOAT SPGS CLOUDY    37  32  83 CALM      30.20S
WALDEN         CLOUDY    37  30  75 NW6       30.18S
$$

COZ006>008-011-212000-
...WEST CENTRAL VALLEYS...

CITY           SKY/WX    TMP DP  RH WIND       PRES   REMARKS
GRAND JUNCTION CLOUDY    55  36  48 VRB6      30.18F
MONTROSE       PTSUNNY   49  36  61 CALM      30.22F
EAGLE          CLOUDY    40  33  76 CALM      30.23R
RIFLE          CLOUDY    47  40  76 VRB6      30.20F
DELTA          PTSUNNY   53  40  61 E3        30.21F
NUCLA          FAIR      54  34  47 N7        30.22S
$$

COZ017>023-064>068-212000-
...SOUTHWEST COLORADO...

CITY           SKY/WX    TMP DP  RH WIND       PRES   REMARKS
DURANGO        FAIR      55  25  31 VRB5      30.10F
CORTEZ         FAIR      61  29  29 N16G28    30.13F
PAGOSA SPRINGS FAIR      52  21  28 SW8       30.12F
TELLURIDE      PTSUNNY   38  30  74 W8        30.24F
WOLF CREEK PAS FAIR      30  19  64 W5        30.27S WCI  25
$$

COZ009-010-012-014-032>034-037-058>063-212000-
...CENTRAL COLORADO...

CITY           SKY/WX    TMP DP  RH WIND       PRES   REMARKS
ASPEN          CLOUDY    36  30  79 N5        30.20S
BUENA VISTA    FAIR      49  28  45 NW16G23   30.11S
COPPER MTN     NOT AVBL
BERTHOUD PASS  CLOUDY    19   9  63 MISG      30.17S
COTTONWOOD PAS CLOUDY    43  30  61 W5        30.15S
GUNNISON       CLOUDY    42  28  57 VRB3G21   30.17R
GRANBY         CLOUDY    33  31  90 W7        30.18R WCI  27
KREMMLING      CLOUDY    43  32  65 S3        30.18F
LEADVILLE      CLOUDY    29  24  82 NW15G25   30.16R WCI  18
MONARCH PASS   CLOUDY    23  21  93 W28G37    30.29S WCI   6
SALIDA         PTSUNNY   48  30  49 NW5       30.17F
SUNLIGHT       FOG      N/A N/A N/A MISG      30.28S VSB<1/4
WILKERSON PASS LGT SNOW N/A N/A N/A CALM      30.19S VSB 1
$$

COZ069>075-212000-
...SAN LUIS VALLEY/SANGRE DE CRISTO MOUNTAINS...

CITY           SKY/WX    TMP DP  RH WIND       PRES   REMARKS
ALAMOSA        PTSUNNY   49  24  37 N9G18     30.11F
DEL NORTE      CLOUDY    47  23  38 N5        30.12S
LA VETA PASS   CLOUDY    34  28  80 SW5       30.26R WCI  30
SAGUACHE       NOT AVBL
$$

COZ035-036-038>040-212000-
...NORTHERN COLORADO FRONT RANGE...

CITY           SKY/WX    TMP DP  RH WIND       PRES   REMARKS
DENVER INTL AP CLOUDY    36  32  85 N6        30.18S
AURORA         FLURRIES  35  34  99 N5        30.19S WCI  30
FRONT RANGE AP LGT SNOW  36  34  93 NW3       30.19S
ERIE MUNI ARPT CLOUDY    37  34  89 CALM      30.25S
BOULDER MUN AP CLOUDY    37  34  87 SE3       30.18S
CENTENNIAL     LGT SNOW  35  33  92 N7        30.18S FOG     WCI  29
BROOMFIELD     NOT AVBL
FORT COLLINS   CLOUDY    44  37  76 E7        30.19S
LONGMONT       CLOUDY    42  37  81 CALM      30.21S
$$

COZ041-046-047-076>085-087-088-212000-
...PIKES PEAK/PALMER DIVIDE AND SOUTHERN FOOTHILLS...

CITY           SKY/WX    TMP DP  RH WIND       PRES   REMARKS
COLO. SPRINGS  LGT SNOW  37  33  85 N7        30.17S FOG
A. F. ACADEMY  LGT RAIN  37  33  87 N16       30.15S
SCHRIEVER AFB  NOT AVBL
CHEYENNE MTN   LGT SNOW  32  31  98 N12       30.10F WCI  23
ELLICOTT       LGT SNOW N/A N/A N/A N12       30.16S
FALCON         CLOUDY    36  29  78 N14       30.17S
FORT CARSON    LGT SNOW  37  36  93 N7        30.17S
LIMON          LGT SNOW  35  34  96 NW12      30.17F FOG     WCI  27
MONUMENT HILL  LGT SNOW  32  30  93 NW10      30.18S WCI  24
CANON CITY     CLOUDY    45  37  76 NE13      30.14R
WALSENBURG     NOT AVBL
TRINIDAD       PTSUNNY   49  33  54 NE12G20   30.11F
$$

COZ042>045-048>051-090-091-212000-
...NORTHEAST COLORADO...

CITY           SKY/WX    TMP DP  RH WIND       PRES   REMARKS
GREELEY ARPT   CLOUDY    41  35  79 N6        30.20S
AKRON          CLOUDY    35  34  96 E3        30.19F
BURLINGTON     CLOUDY    41  37  86 NE12      30.18S
WRAY           CLOUDY    41  37  87 E6        30.21S
YUMA           CLOUDY    36  34  93 NE3       30.20S
STERLING       NOT AVBL
HOLYOKE        CLOUDY    41  37  87 CALM      30.21F
FORT MORGAN    CLOUDY    38  35  88 E3        30.20F
$$

COZ086-089-092>099-212000-
...SOUTHEAST COLORADO...

CITY           SKY/WX    TMP DP  RH WIND       PRES   REMARKS
PUEBLO         LGT RAIN  44  38  79 N21       30.16R
LA JUNTA       CLOUDY    49  39  68 NE10      30.14S
LAMAR          CLOUDY    47  38  71 NE12      30.13S
SPRINGFIELD      N/A     45  38  76 N14       30.11F
$$




USA.gov is the U.S. government's official web portal to all federal, state and local government web resources and services.